This demonstration page uses our WeatherBlox Daily Observations layout. Learn more.

Left ArrowRight Arrow

Hourly Observations for September 4, 2015

Temp ( °F °C ) Dew Point ( °F °C ) Humidity (%) Winds ( mph kmh ) Pressure ( in mb ) Visibility ( mi km ) Precip ( " mm )
12:53 am 00:53 Clear 77 25 63 17.2 62 62 S 10 17 29.75 1008 10 16 0.00 0.00
1:53 am 01:53 Clear 77 25 62 16.7 60 60 SSE 12 19 29.75 1008 10 16 0.00 0.00
2:53 am 02:53 Clear 77 25 62 16.7 60 60 S 12 19 29.75 1007 10 16 0.00 0.00
3:02 am 03:02 Mostly Clear with Thunderstorms 79 26 63 17 58 58 S 13 20 29.71 1006 10 16 0.00 0.00
3:23 am 03:23 Mostly Cloudy with Nearby Thunderstorms 82 27.8 60 15.6 47 47 S 17 28 29.71 1006 10 16 0.00 0.00
3:53 am 03:53 Partly Cloudy with Nearby Thunderstorms 78 25.6 62 16.7 58 58 SSE 16 26 29.75 1007 10 16 0.00 0.00
4:16 am 04:16 Partly Cloudy with Light Rain 73 23 64 18 74 74 SSE 13 20 29.74 1007 9 14 0.00 0.00
4:53 am 04:53 Mostly Clear 72 22.2 65 18.3 79 79 SSE 12 19 29.76 1008 10 16 0.07 1.78
5:53 am 05:53 Clear 74 23.3 63 17.2 69 69 S 12 19 29.77 1008 10 16 0.00 0.00
6:53 am 06:53 Clear 75 23.9 63 17.2 66 66 SSE 16 26 29.78 1009 10 16 0.00 0.00
7:53 am 07:53 Sunny 74 23.3 64 17.8 71 71 SSE 16 26 29.80 1009 10 16 0.00 0.00
8:53 am 08:53 Mostly Sunny 77 25 64 17.8 64 64 S 16 26 29.81 1010 10 16 0.00 0.00
9:53 am 09:53 Sunny 79 26.1 65 18.3 62 62 SSE 14 22 29.81 1010 10 16 0.00 0.00
10:53 am 10:53 Sunny 81 27.2 64 17.8 57 57 S 16 26 29.81 1010 10 16 0.00 0.00
11:53 am 11:53 Sunny 85 29.4 64 17.8 50 50 S 16 26 29.79 1009 10 16 0.00 0.00
12:53 pm 12:53 Sunny 89 31.7 64 17.8 43 43 S 20 31 29.78 1009 10 16 0.00 0.00
1:53 pm 13:53 Sunny 92 33.3 64 17.8 40 40 S 18 30 29.77 1008 10 16 0.00 0.00
2:53 pm 14:53 Sunny 94 34.4 64 17.8 37 37 S 14 22 29.76 1008 10 16 0.00 0.00
3:53 pm 15:53 Sunny 95 35 63 17.2 35 35 S 20 31 29.75 1008 10 16 0.00 0.00
4:53 pm 16:53 Sunny 95 35 64 17.8 36 36 S 14 22 29.75 1007 10 16 0.00 0.00
5:53 pm 17:53 Sunny 94 34.4 63 17.2 36 36 S 14 22 29.74 1007 10 16 0.00 0.00
6:53 pm 18:53 Sunny 92 33.3 63 17.2 38 38 S 15 24 29.74 1007 10 16 0.00 0.00
7:53 pm 19:53 Sunny 88 31.1 64 17.8 45 45 SSE 14 22 29.76 1008 10 16 0.00 0.00
8:53 pm 20:53 Clear 84 28.9 66 18.9 55 55 undefined N/A 29.78 1008 10 16 0.00 0.00
9:53 pm 21:53 Clear 82 27.8 65 18.3 56 56 SSE 13 20 29.80 1009 10 16 0.00 0.00
10:53 pm 22:53 Clear 80 26.7 64 17.8 58 58 undefined N/A 29.81 1010 10 16 0.00 0.00
11:53 pm 23:53 Clear 78 25.6 64 17.8 62 62 SSE 8 13 29.82 1010 10 16 0.00 0.00

Powered by AerisWeather